Time,TemperatureF,DewpointF,PressureIn,WindDirection,WindDirectionDegrees,WindSpeedMPH,WindSpeedGustMPH,Humidity,HourlyPrecipIn,Conditions,Clouds,dailyrainin,SolarRadiationWatts/m^2,SoftwareType,DateUTC
2013-06-29 00:00:00,74.9,61.0,29.96,NNE,22,3.0,10.0,62,0.00,,,0.00,0,Wunderground v.1.15,2013-06-29 05:00:00,
2013-06-29 00:06:00,75.0,60.6,29.96,NNE,21,3.0,10.0,61,0.00,,,0.00,0,Wunderground v.1.15,2013-06-29 05:06:00,
2013-06-29 00:12:00,74.7,60.8,29.96,NNE,21,3.0,10.0,62,0.00,,,0.00,0,Wunderground v.1.15,2013-06-29 05:12:00,
2013-06-29 00:18:00,74.5,60.6,29.95,NNE,21,3.0,10.0,62,0.00,,,0.00,0,Wunderground v.1.15,2013-06-29 05:18:00,
2013-06-29 00:24:00,74.1,60.7,29.95,NNE,21,3.0,10.0,63,0.00,,,0.00,0,Wunderground v.1.15,2013-06-29 05:24:00,
2013-06-29 00:30:00,74.0,60.6,29.96,NNE,18,5.0,10.0,63,0.00,,,0.00,0,Wunderground v.1.15,2013-06-29 05:30:00,
2013-06-29 00:36:00,73.8,60.4,29.96,NNE,13,5.0,10.0,63,0.00,,,0.00,0,Wunderground v.1.15,2013-06-29 05:36:00,
2013-06-29 00:42:00,73.7,60.3,29.96,NNE,12,4.0,10.0,63,0.00,,,0.00,0,Wunderground v.1.15,2013-06-29 05:42:00,
2013-06-29 00:48:00,73.8,60.4,29.96,NNE,12,3.0,10.0,63,0.00,,,0.00,0,Wunderground v.1.15,2013-06-29 05:48:00,
2013-06-29 00:54:00,73.7,60.3,29.96,NNE,12,3.0,10.0,63,0.00,,,0.00,0,Wunderground v.1.15,2013-06-29 05:54:00,
2013-06-29 01:00:00,73.8,60.4,29.96,NNE,12,3.0,10.0,63,0.00,,,0.00,0,Wunderground v.1.15,2013-06-29 06:00:00,
2013-06-29 01:06:00,73.7,60.8,29.96,NNE,12,4.0,5.0,64,0.00,,,0.00,0,Wunderground v.1.15,2013-06-29 06:06:00,
2013-06-29 01:12:00,73.3,60.4,29.97,North,8,4.0,5.0,64,0.00,,,0.00,0,Wunderground v.1.15,2013-06-29 06:12:00,
2013-06-29 01:18:00,73.3,60.4,29.96,North,8,4.0,4.0,64,0.00,,,0.00,0,Wunderground v.1.15,2013-06-29 06:18:00,
2013-06-29 01:24:00,73.3,60.4,29.96,North,8,3.0,3.0,64,0.00,,,0.00,0,Wunderground v.1.15,2013-06-29 06:24:00,
2013-06-29 01:30:00,73.3,60.4,29.96,North,8,3.0,3.0,64,0.00,,,0.00,0,Wunderground v.1.15,2013-06-29 06:30:00,
2013-06-29 01:36:00,73.1,60.2,29.97,North,8,3.0,3.0,64,0.00,,,0.00,0,Wunderground v.1.15,2013-06-29 06:36:00,
2013-06-29 01:42:00,73.0,60.5,29.96,North,8,3.0,5.0,65,0.00,,,0.00,0,Wunderground v.1.15,2013-06-29 06:42:00,
2013-06-29 01:48:00,73.1,60.2,29.97,North,8,4.0,5.0,64,0.00,,,0.00,0,Wunderground v.1.15,2013-06-29 06:48:00,
2013-06-29 01:56:00,73.2,60.3,29.97,North,7,3.0,5.0,64,0.00,,,0.00,0,Wunderground v.1.15,2013-06-29 06:56:00,
2013-06-29 02:02:00,73.0,60.5,29.97,North,2,3.0,5.0,65,0.00,,,0.00,0,Wunderground v.1.15,2013-06-29 07:02:00,
2013-06-29 02:08:00,72.6,61.0,29.98,North,2,3.0,5.0,67,0.00,,,0.00,0,Wunderground v.1.15,2013-06-29 07:08:00,
2013-06-29 02:14:00,72.2,61.0,29.97,North,2,3.0,5.0,68,0.00,,,0.00,0,Wunderground v.1.15,2013-06-29 07:14:00,
2013-06-29 02:20:00,71.9,61.6,29.98,North,357,4.0,5.0,70,0.00,,,0.00,0,Wunderground v.1.15,2013-06-29 07:20:00,
2013-06-29 02:26:00,71.5,61.6,29.98,North,357,4.0,5.0,71,0.00,,,0.00,0,Wunderground v.1.15,2013-06-29 07:26:00,
2013-06-29 02:32:00,71.2,61.3,29.98,North,357,3.0,5.0,71,0.00,,,0.00,0,Wunderground v.1.15,2013-06-29 07:32:00,
2013-06-29 02:38:00,71.2,61.3,29.98,North,357,3.0,5.0,71,0.00,,,0.00,0,Wunderground v.1.15,2013-06-29 07:38:00,
2013-06-29 02:44:00,71.1,61.2,29.98,North,357,3.0,5.0,71,0.00,,,0.00,0,Wunderground v.1.15,2013-06-29 07:44:00,
2013-06-29 02:50:00,71.4,61.1,29.98,North,357,3.0,5.0,70,0.00,,,0.00,0,Wunderground v.1.15,2013-06-29 07:50:00,
2013-06-29 02:56:00,71.4,61.1,29.98,North,357,3.0,5.0,70,0.00,,,0.00,0,Wunderground v.1.15,2013-06-29 07:56:00,
2013-06-29 03:02:00,71.2,60.9,29.98,North,352,4.0,6.0,70,0.00,,,0.00,0,Wunderground v.1.15,2013-06-29 08:02:00,
2013-06-29 03:08:00,71.0,60.3,29.98,North,352,5.0,6.0,69,0.00,,,0.00,0,Wunderground v.1.15,2013-06-29 08:08:00,
2013-06-29 03:14:00,70.9,60.2,29.98,North,352,4.0,4.0,69,0.00,,,0.00,0,Wunderground v.1.15,2013-06-29 08:14:00,
2013-06-29 03:20:00,70.8,60.5,29.98,NNW,348,4.0,5.0,70,0.00,,,0.00,0,Wunderground v.1.15,2013-06-29 08:20:00,
2013-06-29 03:26:00,70.6,60.3,29.98,NNW,348,4.0,5.0,70,0.00,,,0.00,0,Wunderground v.1.15,2013-06-29 08:26:00,
2013-06-29 03:32:00,70.3,60.4,29.98,NNW,348,4.0,6.0,71,0.00,,,0.00,0,Wunderground v.1.15,2013-06-29 08:32:00,
2013-06-29 03:38:00,70.0,60.6,29.98,NNW,348,4.0,5.0,72,0.00,,,0.00,0,Wunderground v.1.15,2013-06-29 08:38:00,
2013-06-29 03:44:00,69.9,60.5,29.98,NNW,348,4.0,4.0,72,0.00,,,0.00,0,Wunderground v.1.15,2013-06-29 08:44:00,
2013-06-29 03:50:00,69.9,60.5,29.98,NNW,347,4.0,5.0,72,0.00,,,0.00,0,Wunderground v.1.15,2013-06-29 08:50:00,
2013-06-29 03:56:00,69.8,60.4,29.98,NNW,347,4.0,5.0,72,0.00,,,0.00,0,Wunderground v.1.15,2013-06-29 08:56:00,
2013-06-29 04:02:00,69.6,60.2,29.98,NNW,347,4.0,5.0,72,0.00,,,0.00,0,Wunderground v.1.15,2013-06-29 09:02:00,
2013-06-29 04:08:00,69.4,60.0,29.98,NNW,347,4.0,5.0,72,0.00,,,0.00,0,Wunderground v.1.15,2013-06-29 09:08:00,
2013-06-29 04:14:00,69.2,60.2,29.98,NNW,347,4.0,4.0,73,0.00,,,0.00,0,Wunderground v.1.15,2013-06-29 09:14:00,
2013-06-29 04:20:00,69.3,59.9,29.98,NNW,347,4.0,5.0,72,0.00,,,0.00,0,Wunderground v.1.15,2013-06-29 09:20:00,
2013-06-29 04:26:00,69.5,59.7,29.98,NNW,347,4.0,5.0,71,0.00,,,0.00,0,Wunderground v.1.15,2013-06-29 09:26:00,
2013-06-29 04:32:00,69.7,59.9,29.98,NNW,347,4.0,5.0,71,0.00,,,0.00,0,Wunderground v.1.15,2013-06-29 09:32:00,
2013-06-29 04:38:00,69.9,59.7,29.98,NNW,347,4.0,5.0,70,0.00,,,0.00,0,Wunderground v.1.15,2013-06-29 09:38:00,
2013-06-29 04:44:00,69.8,59.6,29.98,NNW,346,4.0,5.0,70,0.00,,,0.00,0,Wunderground v.1.15,2013-06-29 09:44:00,
2013-06-29 04:50:00,69.5,59.7,29.99,NNW,344,5.0,5.0,71,0.00,,,0.00,0,Wunderground v.1.15,2013-06-29 09:50:00,
2013-06-29 04:56:00,69.2,59.4,29.99,NNW,344,4.0,5.0,71,0.00,,,0.00,0,Wunderground v.1.15,2013-06-29 09:56:00,
2013-06-29 05:02:00,69.2,59.0,29.99,NNW,344,4.0,5.0,70,0.00,,,0.00,0,Wunderground v.1.15,2013-06-29 10:02:00,
2013-06-29 05:08:00,69.3,59.1,29.99,NNW,344,3.0,5.0,70,0.00,,,0.00,0,Wunderground v.1.15,2013-06-29 10:08:00,
2013-06-29 05:14:00,69.2,59.0,29.99,NNW,343,4.0,5.0,70,0.00,,,0.00,0,Wunderground v.1.15,2013-06-29 10:14:00,
2013-06-29 05:20:00,69.2,59.0,29.99,NNW,343,4.0,5.0,70,0.00,,,0.00,0,Wunderground v.1.15,2013-06-29 10:20:00,
2013-06-29 05:26:00,69.1,58.9,29.99,NNW,343,4.0,5.0,70,0.00,,,0.00,0,Wunderground v.1.15,2013-06-29 10:26:00,
2013-06-29 05:32:00,68.9,59.1,29.99,NNW,343,4.0,5.0,71,0.00,,,0.00,0,Wunderground v.1.15,2013-06-29 10:32:00,
2013-06-29 05:38:00,68.8,59.0,29.99,NNW,343,4.0,5.0,71,0.00,,,0.00,0,Wunderground v.1.15,2013-06-29 10:38:00,
2013-06-29 05:44:00,68.7,59.3,30.00,NNW,343,4.0,5.0,72,0.00,,,0.00,0,Wunderground v.1.15,2013-06-29 10:44:00,
2013-06-29 05:50:00,68.5,59.1,30.00,NNW,343,4.0,5.0,72,0.00,,,0.00,0,Wunderground v.1.15,2013-06-29 10:50:00,
2013-06-29 05:56:00,68.3,58.9,30.00,NNW,341,4.0,6.0,72,0.00,,,0.00,0,Wunderground v.1.15,2013-06-29 10:56:00,
2013-06-29 06:02:00,68.1,59.1,30.00,NNW,341,4.0,6.0,73,0.00,,,0.00,0,Wunderground v.1.15,2013-06-29 11:02:00,
2013-06-29 06:08:00,67.9,58.9,30.00,NNW,341,4.0,5.0,73,0.00,,,0.00,5,Wunderground v.1.15,2013-06-29 11:08:00,
2013-06-29 06:14:00,67.5,58.9,30.00,NNW,341,4.0,5.0,74,0.00,,,0.00,7,Wunderground v.1.15,2013-06-29 11:14:00,
2013-06-29 06:20:00,67.2,59.0,30.00,NNW,341,4.0,5.0,75,0.00,,,0.00,11,Wunderground v.1.15,2013-06-29 11:20:00,
2013-06-29 06:26:00,67.2,58.6,30.00,NNW,341,4.0,5.0,74,0.00,,,0.00,16,Wunderground v.1.15,2013-06-29 11:26:00,
2013-06-29 06:32:00,67.8,58.8,30.00,NNW,341,4.0,5.0,73,0.00,,,0.00,21,Wunderground v.1.15,2013-06-29 11:32:00,
2013-06-29 06:38:00,68.2,59.2,30.00,NNW,341,4.0,5.0,73,0.00,,,0.00,25,Wunderground v.1.15,2013-06-29 11:38:00,
2013-06-29 06:44:00,68.4,59.4,29.99,NNW,341,4.0,4.0,73,0.00,,,0.00,33,Wunderground v.1.15,2013-06-29 11:44:00,
2013-06-29 06:50:00,68.1,59.9,30.00,NNW,341,4.0,5.0,75,0.00,,,0.00,49,Wunderground v.1.15,2013-06-29 11:50:00,
2013-06-29 06:56:00,68.2,59.6,30.00,NNW,341,3.0,5.0,74,0.00,,,0.00,54,Wunderground v.1.15,2013-06-29 11:56:00,
2013-06-29 07:02:00,69.0,60.0,30.00,NNW,341,2.0,5.0,73,0.00,,,0.00,63,Wunderground v.1.15,2013-06-29 12:02:00,
2013-06-29 07:08:00,69.9,60.1,30.00,NNW,341,2.0,5.0,71,0.00,,,0.00,76,Wunderground v.1.15,2013-06-29 12:08:00,
2013-06-29 07:14:00,70.6,59.9,30.00,NNW,341,2.0,2.0,69,0.00,,,0.00,91,Wunderground v.1.15,2013-06-29 12:14:00,
2013-06-29 07:20:00,71.0,60.7,30.00,NNW,341,2.0,5.0,70,0.00,,,0.00,111,Wunderground v.1.15,2013-06-29 12:20:00,
2013-06-29 07:26:00,71.2,60.9,30.00,NNW,341,1.0,5.0,70,0.00,,,0.00,134,Wunderground v.1.15,2013-06-29 12:26:00,
2013-06-29 07:32:00,71.5,60.8,30.00,NNW,341,1.0,5.0,69,0.00,,,0.00,160,Wunderground v.1.15,2013-06-29 12:32:00,
2013-06-29 07:38:00,72.1,61.4,30.00,NNW,341,2.0,5.0,69,0.00,,,0.00,183,Wunderground v.1.15,2013-06-29 12:38:00,
2013-06-29 07:44:00,72.4,61.2,30.00,NNW,341,3.0,3.0,68,0.00,,,0.00,211,Wunderground v.1.15,2013-06-29 12:44:00,
2013-06-29 07:50:00,73.0,62.2,30.00,NNW,341,3.0,5.0,69,0.00,,,0.00,232,Wunderground v.1.15,2013-06-29 12:50:00,
2013-06-29 07:56:00,73.7,61.6,30.00,North,352,4.0,5.0,66,0.00,,,0.00,241,Wunderground v.1.15,2013-06-29 12:56:00,
2013-06-29 08:02:00,74.5,61.1,30.00,NNW,341,4.0,6.0,63,0.00,,,0.00,253,Wunderground v.1.15,2013-06-29 13:02:00,
2013-06-29 08:08:00,74.9,61.5,30.00,NNW,344,5.0,6.0,63,0.00,,,0.00,267,Wunderground v.1.15,2013-06-29 13:08:00,
2013-06-29 08:14:00,75.3,61.4,30.01,NNW,339,5.0,5.0,62,0.00,,,0.00,283,Wunderground v.1.15,2013-06-29 13:14:00,
2013-06-29 08:20:00,75.7,61.3,30.01,NNW,337,4.0,5.0,61,0.00,,,0.00,299,Wunderground v.1.15,2013-06-29 13:20:00,
2013-06-29 08:26:00,76.3,61.9,30.01,NNW,327,3.0,5.0,61,0.00,,,0.00,316,Wunderground v.1.15,2013-06-29 13:26:00,
2013-06-29 08:32:00,76.7,61.8,30.01,NW,308,4.0,7.0,60,0.00,,,0.00,336,Wunderground v.1.15,2013-06-29 13:32:00,
2013-06-29 08:38:00,77.0,62.0,30.02,WNW,290,5.0,8.0,60,0.00,,,0.00,353,Wunderground v.1.15,2013-06-29 13:38:00,
2013-06-29 08:44:00,77.2,61.3,30.02,WNW,293,6.0,6.0,58,0.00,,,0.00,371,Wunderground v.1.15,2013-06-29 13:44:00,
2013-06-29 08:50:00,77.6,61.7,30.02,WNW,297,5.0,8.0,58,0.00,,,0.00,387,Wunderground v.1.15,2013-06-29 13:50:00,
2013-06-29 08:56:00,78.3,62.8,30.02,WNW,285,6.0,7.0,59,0.00,,,0.00,403,Wunderground v.1.15,2013-06-29 13:56:00,
2013-06-29 09:02:00,78.6,61.6,30.02,WNW,285,6.0,8.0,56,0.00,,,0.00,424,Wunderground v.1.15,2013-06-29 14:02:00,
2013-06-29 09:08:00,79.1,61.5,30.02,WNW,297,6.0,9.0,55,0.00,,,0.00,441,Wunderground v.1.15,2013-06-29 14:08:00,
2013-06-29 09:14:00,79.6,59.9,30.02,NW,314,5.0,5.0,51,0.00,,,0.00,461,Wunderground v.1.15,2013-06-29 14:14:00,
2013-06-29 09:20:00,80.0,60.2,30.02,NW,310,5.0,7.0,51,0.00,,,0.00,473,Wunderground v.1.15,2013-06-29 14:20:00,
2013-06-29 09:26:00,80.3,60.5,30.01,WNW,299,5.0,8.0,51,0.00,,,0.00,466,Wunderground v.1.15,2013-06-29 14:26:00,
2013-06-29 09:32:00,80.9,60.5,30.01,WNW,293,4.0,8.0,50,0.00,,,0.00,473,Wunderground v.1.15,2013-06-29 14:32:00,
2013-06-29 09:38:00,81.2,60.8,30.01,WNW,285,5.0,8.0,50,0.00,,,0.00,373,Wunderground v.1.15,2013-06-29 14:38:00,
2013-06-29 09:44:00,81.3,59.1,30.01,WNW,295,7.0,8.0,47,0.00,,,0.00,519,Wunderground v.1.15,2013-06-29 14:44:00,
2013-06-29 09:50:00,81.7,59.5,30.01,WNW,292,7.0,8.0,47,0.00,,,0.00,557,Wunderground v.1.15,2013-06-29 14:50:00,
2013-06-29 09:56:00,82.0,57.9,30.01,WNW,285,6.0,9.0,44,0.00,,,0.00,524,Wunderground v.1.15,2013-06-29 14:56:00,
2013-06-29 10:02:00,82.3,59.4,30.00,WNW,296,6.0,9.0,46,0.00,,,0.00,577,Wunderground v.1.15,2013-06-29 15:02:00,
2013-06-29 10:08:00,82.5,58.4,30.00,WNW,288,6.0,8.0,44,0.00,,,0.00,585,Wunderground v.1.15,2013-06-29 15:08:00,
2013-06-29 10:14:00,82.9,58.1,30.00,NW,320,6.0,7.0,43,0.00,,,0.00,633,Wunderground v.1.15,2013-06-29 15:14:00,
2013-06-29 10:20:00,83.0,58.8,30.00,NNW,345,6.0,13.0,44,0.00,,,0.00,626,Wunderground v.1.15,2013-06-29 15:20:00,
2013-06-29 10:26:00,83.1,59.6,30.00,NW,320,7.0,7.0,45,0.00,,,0.00,640,Wunderground v.1.15,2013-06-29 15:26:00,
2013-06-29 10:32:00,83.4,57.9,30.00,NNE,14,7.0,9.0,42,0.00,,,0.00,703,Wunderground v.1.15,2013-06-29 15:32:00,
2013-06-29 10:38:00,83.9,58.3,30.00,NNW,347,8.0,13.0,42,0.00,,,0.00,693,Wunderground v.1.15,2013-06-29 15:38:00,
2013-06-29 10:44:00,83.7,57.5,29.99,NW,325,8.0,8.0,41,0.00,,,0.00,705,Wunderground v.1.15,2013-06-29 15:44:00,
2013-06-29 10:50:00,84.0,57.8,30.00,NW,318,7.0,12.0,41,0.00,,,0.00,719,Wunderground v.1.15,2013-06-29 15:50:00,
2013-06-29 10:56:00,84.2,59.3,30.00,WNW,303,8.0,12.0,43,0.00,,,0.00,742,Wunderground v.1.15,2013-06-29 15:56:00,
2013-06-29 11:02:00,84.7,59.7,29.99,NNW,347,7.0,12.0,43,0.00,,,0.00,708,Wunderground v.1.15,2013-06-29 16:02:00,
2013-06-29 11:08:00,85.3,59.6,29.99,NNW,328,6.0,8.0,42,0.00,,,0.00,752,Wunderground v.1.15,2013-06-29 16:08:00,
2013-06-29 11:14:00,85.2,57.4,30.00,NW,316,8.0,13.0,39,0.00,,,0.00,766,Wunderground v.1.15,2013-06-29 16:14:00,
2013-06-29 11:20:00,84.8,57.8,30.00,NW,322,8.0,13.0,40,0.00,,,0.00,777,Wunderground v.1.15,2013-06-29 16:20:00,
2013-06-29 11:26:00,85.0,57.3,30.00,NW,311,9.0,10.0,39,0.00,,,0.00,800,Wunderground v.1.15,2013-06-29 16:26:00,
2013-06-29 11:32:00,85.3,57.5,29.99,NW,314,11.0,16.0,39,0.00,,,0.00,721,Wunderground v.1.15,2013-06-29 16:32:00,
2013-06-29 11:38:00,85.7,57.9,29.99,North,2,12.0,13.0,39,0.00,,,0.00,810,Wunderground v.1.15,2013-06-29 16:38:00,
2013-06-29 11:44:00,86.1,59.0,29.99,NW,308,11.0,11.0,40,0.00,,,0.00,828,Wunderground v.1.15,2013-06-29 16:44:00,
2013-06-29 11:50:00,86.1,56.8,29.99,WNW,301,9.0,11.0,37,0.00,,,0.00,824,Wunderground v.1.15,2013-06-29 16:50:00,
2013-06-29 11:56:00,85.6,57.8,29.98,NW,310,10.0,12.0,39,0.00,,,0.00,846,Wunderground v.1.15,2013-06-29 16:56:00,
2013-06-29 12:02:00,86.3,58.4,29.98,North,357,10.0,15.0,39,0.00,,,0.00,846,Wunderground v.1.15,2013-06-29 17:02:00,
2013-06-29 12:10:00,86.6,57.2,29.98,NNW,337,13.0,16.0,37,0.00,,,0.00,851,Wunderground v.1.15,2013-06-29 17:10:00,
2013-06-29 12:16:00,86.8,57.4,29.98,North,8,12.0,12.0,37,0.00,,,0.00,867,Wunderground v.1.15,2013-06-29 17:16:00,
2013-06-29 12:22:00,86.9,56.0,29.98,NW,326,12.0,13.0,35,0.00,,,0.00,875,Wunderground v.1.15,2013-06-29 17:22:00,
2013-06-29 12:28:00,87.2,60.6,29.98,NNW,339,12.0,13.0,41,0.00,,,0.00,879,Wunderground v.1.15,2013-06-29 17:28:00,
2013-06-29 12:34:00,87.3,57.8,29.98,NNW,333,10.0,11.0,37,0.00,,,0.00,888,Wunderground v.1.15,2013-06-29 17:34:00,
2013-06-29 12:40:00,87.3,56.3,29.98,NNW,343,11.0,22.0,35,0.00,,,0.00,891,Wunderground v.1.15,2013-06-29 17:40:00,
2013-06-29 12:46:00,87.6,54.9,29.98,NNW,333,13.0,18.0,33,0.00,,,0.00,898,Wunderground v.1.15,2013-06-29 17:46:00,
2013-06-29 12:52:00,87.6,58.1,29.98,NNW,347,14.0,18.0,37,0.00,,,0.00,900,Wunderground v.1.15,2013-06-29 17:52:00,
2013-06-29 12:58:00,87.8,55.9,29.97,NNW,331,11.0,13.0,34,0.00,,,0.00,905,Wunderground v.1.15,2013-06-29 17:58:00,
2013-06-29 13:04:00,87.8,55.1,29.97,North,357,11.0,11.0,33,0.00,,,0.00,912,Wunderground v.1.15,2013-06-29 18:04:00,
2013-06-29 13:10:00,87.6,57.3,29.97,NW,322,11.0,15.0,36,0.00,,,0.00,912,Wunderground v.1.15,2013-06-29 18:10:00,
2013-06-29 13:16:00,87.9,55.2,29.97,NW,315,12.0,16.0,33,0.00,,,0.00,919,Wunderground v.1.15,2013-06-29 18:16:00,
2013-06-29 13:22:00,88.0,56.9,29.97,NNW,343,13.0,16.0,35,0.00,,,0.00,918,Wunderground v.1.15,2013-06-29 18:22:00,
2013-06-29 13:28:00,88.2,56.3,29.97,NNW,340,13.0,20.0,34,0.00,,,0.00,919,Wunderground v.1.15,2013-06-29 18:28:00,
2013-06-29 13:34:00,88.4,55.6,29.97,NNW,347,14.0,19.0,33,0.00,,,0.00,923,Wunderground v.1.15,2013-06-29 18:34:00,
2013-06-29 13:40:00,88.4,56.5,29.97,North,352,14.0,23.0,34,0.00,,,0.00,691,Wunderground v.1.15,2013-06-29 18:40:00,
2013-06-29 13:46:00,88.3,55.6,29.96,NW,317,13.0,19.0,33,0.00,,,0.00,925,Wunderground v.1.15,2013-06-29 18:46:00,
2013-06-29 13:52:00,88.2,54.6,29.96,NW,320,12.0,19.0,32,0.00,,,0.00,925,Wunderground v.1.15,2013-06-29 18:52:00,
2013-06-29 13:58:00,88.5,54.0,29.96,WNW,301,14.0,19.0,31,0.00,,,0.00,919,Wunderground v.1.15,2013-06-29 18:58:00,
2013-06-29 14:04:00,88.4,55.6,29.96,North,2,14.0,19.0,33,0.00,,,0.00,923,Wunderground v.1.15,2013-06-29 19:04:00,
2013-06-29 14:10:00,88.6,55.0,29.96,NNW,333,15.0,19.0,32,0.00,,,0.00,926,Wunderground v.1.15,2013-06-29 19:10:00,
2013-06-29 14:16:00,88.9,54.4,29.95,NW,309,14.0,16.0,31,0.00,,,0.00,928,Wunderground v.1.15,2013-06-29 19:16:00,
2013-06-29 14:22:00,88.7,55.1,29.95,NW,313,15.0,20.0,32,0.00,,,0.00,914,Wunderground v.1.15,2013-06-29 19:22:00,
2013-06-29 14:28:00,88.6,55.8,29.95,NW,310,14.0,19.0,33,0.00,,,0.00,983,Wunderground v.1.15,2013-06-29 19:28:00,
2013-06-29 14:34:00,88.5,55.7,29.95,North,8,12.0,12.0,33,0.00,,,0.00,923,Wunderground v.1.15,2013-06-29 19:34:00,
2013-06-29 14:40:00,88.9,55.2,29.95,NW,313,13.0,19.0,32,0.00,,,0.00,923,Wunderground v.1.15,2013-06-29 19:40:00,
2013-06-29 14:46:00,89.0,55.3,29.95,NNW,338,14.0,18.0,32,0.00,,,0.00,900,Wunderground v.1.15,2013-06-29 19:46:00,
2013-06-29 14:52:00,89.3,55.6,29.94,NW,314,13.0,19.0,32,0.00,,,0.00,911,Wunderground v.1.15,2013-06-29 19:52:00,
2013-06-29 14:58:00,89.3,55.6,29.94,North,352,13.0,19.0,32,0.00,,,0.00,937,Wunderground v.1.15,2013-06-29 19:58:00,
2013-06-29 15:04:00,88.9,56.9,29.93,NW,315,13.0,13.0,34,0.00,,,0.00,898,Wunderground v.1.15,2013-06-29 20:04:00,
2013-06-29 15:10:00,89.3,55.6,29.94,North,357,16.0,24.0,32,0.00,,,0.00,877,Wunderground v.1.15,2013-06-29 20:10:00,
2013-06-29 15:20:00,89.3,59.6,29.94,NNW,335,12.0,19.0,37,0.00,,,0.00,893,Wunderground v.1.15,2013-06-29 20:20:00,
2013-06-29 15:26:00,89.6,55.0,29.94,NNW,330,11.0,19.0,31,0.00,,,0.00,877,Wunderground v.1.15,2013-06-29 20:26:00,
2013-06-29 15:32:00,89.5,55.7,29.93,NW,318,12.0,19.0,32,0.00,,,0.00,867,Wunderground v.1.15,2013-06-29 20:32:00,
2013-06-29 15:38:00,89.2,55.5,29.93,NNW,335,13.0,19.0,32,0.00,,,0.00,860,Wunderground v.1.15,2013-06-29 20:38:00,
2013-06-29 15:44:00,89.4,55.7,29.93,NNW,348,14.0,19.0,32,0.00,,,0.00,840,Wunderground v.1.15,2013-06-29 20:44:00,
2013-06-29 15:50:00,89.3,56.4,29.93,NNW,337,13.0,13.0,33,0.00,,,0.00,814,Wunderground v.1.15,2013-06-29 20:50:00,
2013-06-29 15:56:00,89.6,56.7,29.93,NNW,344,13.0,22.0,33,0.00,,,0.00,807,Wunderground v.1.15,2013-06-29 20:56:00,
2013-06-29 16:02:00,89.8,56.9,29.93,NNW,339,15.0,22.0,33,0.00,,,0.00,800,Wunderground v.1.15,2013-06-29 21:02:00,
2013-06-29 16:08:00,89.6,55.0,29.92,North,2,16.0,19.0,31,0.00,,,0.00,759,Wunderground v.1.15,2013-06-29 21:08:00,
2013-06-29 16:14:00,89.8,57.7,29.92,NW,320,14.0,14.0,34,0.00,,,0.00,768,Wunderground v.1.15,2013-06-29 21:14:00,
2013-06-29 16:20:00,89.9,56.9,29.92,NNE,24,13.0,19.0,33,0.00,,,0.00,749,Wunderground v.1.15,2013-06-29 21:20:00,
2013-06-29 16:26:00,89.7,55.0,29.92,NNW,343,14.0,19.0,31,0.00,,,0.00,162,Wunderground v.1.15,2013-06-29 21:26:00,
2013-06-29 16:32:00,89.5,55.7,29.92,NW,314,16.0,19.0,32,0.00,,,0.00,721,Wunderground v.1.15,2013-06-29 21:32:00,
2013-06-29 16:38:00,89.9,55.2,29.92,North,352,17.0,26.0,31,0.00,,,0.00,715,Wunderground v.1.15,2013-06-29 21:38:00,
2013-06-29 16:44:00,89.7,55.0,29.91,WNW,292,17.0,17.0,31,0.00,,,0.00,701,Wunderground v.1.15,2013-06-29 21:44:00,
2013-06-29 16:50:00,89.9,56.1,29.91,North,357,14.0,19.0,32,0.00,,,0.00,680,Wunderground v.1.15,2013-06-29 21:50:00,
2013-06-29 16:56:00,90.0,54.4,29.91,NNW,327,15.0,19.0,30,0.00,,,0.00,666,Wunderground v.1.15,2013-06-29 21:56:00,
2013-06-29 17:02:00,89.9,54.3,29.91,NNW,342,15.0,24.0,30,0.00,,,0.00,654,Wunderground v.1.15,2013-06-29 22:02:00,
2013-06-29 17:08:00,89.8,55.1,29.91,NW,324,16.0,20.0,31,0.00,,,0.00,638,Wunderground v.1.15,2013-06-29 22:08:00,
2013-06-29 17:16:00,89.8,54.2,29.90,NNW,341,12.0,19.0,30,0.00,,,0.00,608,Wunderground v.1.15,2013-06-29 22:16:00,
2013-06-29 17:22:00,89.5,54.9,29.90,NNW,333,13.0,19.0,31,0.00,,,0.00,591,Wunderground v.1.15,2013-06-29 22:22:00,
2013-06-29 17:28:00,89.5,54.0,29.90,NW,318,15.0,19.0,30,0.00,,,0.00,575,Wunderground v.1.15,2013-06-29 22:28:00,
2013-06-29 17:34:00,89.3,52.9,29.90,NW,322,15.0,19.0,29,0.00,,,0.00,561,Wunderground v.1.15,2013-06-29 22:34:00,
2013-06-29 17:40:00,89.2,54.6,29.90,NNW,343,16.0,23.0,31,0.00,,,0.00,543,Wunderground v.1.15,2013-06-29 22:40:00,
2013-06-29 17:46:00,89.3,54.7,29.90,NNW,345,15.0,25.0,31,0.00,,,0.00,526,Wunderground v.1.15,2013-06-29 22:46:00,
2013-06-29 17:52:00,89.0,53.5,29.90,NNW,329,16.0,25.0,30,0.00,,,0.00,504,Wunderground v.1.15,2013-06-29 22:52:00,
2013-06-29 17:58:00,89.0,54.4,29.90,NW,307,14.0,19.0,31,0.00,,,0.00,492,Wunderground v.1.15,2013-06-29 22:58:00,
2013-06-29 18:04:00,88.9,53.5,29.90,NNW,339,14.0,19.0,30,0.00,,,0.00,471,Wunderground v.1.15,2013-06-29 23:04:00,
2013-06-29 18:10:00,88.7,53.3,29.89,NNW,341,15.0,19.0,30,0.00,,,0.00,450,Wunderground v.1.15,2013-06-29 23:10:00,
2013-06-29 18:16:00,88.5,53.1,29.89,NNW,341,15.0,20.0,30,0.00,,,0.00,434,Wunderground v.1.15,2013-06-29 23:16:00,
2013-06-29 18:22:00,88.4,53.9,29.89,NNW,332,15.0,20.0,31,0.00,,,0.00,417,Wunderground v.1.15,2013-06-29 23:22:00,
2013-06-29 18:28:00,88.3,53.8,29.90,NNW,331,13.0,19.0,31,0.00,,,0.00,401,Wunderground v.1.15,2013-06-29 23:28:00,
2013-06-29 18:34:00,88.2,51.9,29.89,NW,316,14.0,19.0,29,0.00,,,0.00,378,Wunderground v.1.15,2013-06-29 23:34:00,
2013-06-29 18:40:00,88.1,51.8,29.89,NNW,333,14.0,19.0,29,0.00,,,0.00,360,Wunderground v.1.15,2013-06-29 23:40:00,
2013-06-29 18:46:00,87.8,52.5,29.90,NW,326,14.0,20.0,30,0.00,,,0.00,343,Wunderground v.1.15,2013-06-29 23:46:00,
2013-06-29 18:52:00,87.7,53.3,29.89,NW,322,12.0,20.0,31,0.00,,,0.00,322,Wunderground v.1.15,2013-06-29 23:52:00,
2013-06-29 18:58:00,87.5,54.0,29.89,NW,319,11.0,19.0,32,0.00,,,0.00,306,Wunderground v.1.15,2013-06-29 23:58:00,
2013-06-29 19:04:00,87.3,53.0,29.89,NNW,339,11.0,19.0,31,0.00,,,0.00,287,Wunderground v.1.15,2013-06-30 00:04:00,
2013-06-29 19:10:00,87.0,53.6,29.90,NW,326,11.0,19.0,32,0.00,,,0.00,265,Wunderground v.1.15,2013-06-30 00:10:00,
2013-06-29 19:16:00,86.6,54.1,29.90,North,6,9.0,19.0,33,0.00,,,0.00,248,Wunderground v.1.15,2013-06-30 00:16:00,
2013-06-29 19:22:00,86.0,53.5,29.90,NNW,343,12.0,19.0,33,0.00,,,0.00,230,Wunderground v.1.15,2013-06-30 00:22:00,
2013-06-29 19:28:00,85.5,53.1,29.90,North,2,12.0,19.0,33,0.00,,,0.00,209,Wunderground v.1.15,2013-06-30 00:28:00,
2013-06-29 19:34:00,85.2,52.8,29.90,NNW,346,11.0,19.0,33,0.00,,,0.00,185,Wunderground v.1.15,2013-06-30 00:34:00,
2013-06-29 19:40:00,84.8,52.5,29.90,NNW,340,10.0,19.0,33,0.00,,,0.00,165,Wunderground v.1.15,2013-06-30 00:40:00,
2013-06-29 19:46:00,84.3,52.1,29.90,North,2,11.0,19.0,33,0.00,,,0.00,141,Wunderground v.1.15,2013-06-30 00:46:00,
2013-06-29 19:52:00,84.0,51.8,29.90,North,6,12.0,19.0,33,0.00,,,0.00,44,Wunderground v.1.15,2013-06-30 00:52:00,
2013-06-29 19:58:00,83.6,51.5,29.90,North,352,11.0,19.0,33,0.00,,,0.00,33,Wunderground v.1.15,2013-06-30 00:58:00,
2013-06-29 20:04:00,83.4,51.3,29.91,North,357,11.0,11.0,33,0.00,,,0.00,30,Wunderground v.1.15,2013-06-30 01:04:00,
2013-06-29 20:10:00,83.0,50.9,29.91,North,6,11.0,19.0,33,0.00,,,0.00,26,Wunderground v.1.15,2013-06-30 01:10:00,
2013-06-29 20:16:00,82.6,50.6,29.91,North,352,12.0,15.0,33,0.00,,,0.00,25,Wunderground v.1.15,2013-06-30 01:16:00,
2013-06-29 20:22:00,82.3,50.3,29.91,NNW,342,12.0,19.0,33,0.00,,,0.00,21,Wunderground v.1.15,2013-06-30 01:22:00,
2013-06-29 20:28:00,82.2,50.2,29.91,North,7,13.0,19.0,33,0.00,,,0.00,18,Wunderground v.1.15,2013-06-30 01:28:00,
2013-06-29 20:34:00,81.9,50.0,29.92,NNE,19,12.0,12.0,33,0.00,,,0.00,14,Wunderground v.1.15,2013-06-30 01:34:00,
2013-06-29 20:40:00,81.3,51.0,29.92,North,2,10.0,19.0,35,0.00,,,0.00,12,Wunderground v.1.15,2013-06-30 01:40:00,
2013-06-29 20:46:00,80.4,51.0,29.92,NNW,347,9.0,19.0,36,0.00,,,0.00,9,Wunderground v.1.15,2013-06-30 01:46:00,
2013-06-29 20:52:00,80.2,49.3,29.92,North,2,10.0,19.0,34,0.00,,,0.00,5,Wunderground v.1.15,2013-06-30 01:52:00,
2013-06-29 20:58:00,80.1,49.2,29.92,North,352,11.0,19.0,34,0.00,,,0.00,0,Wunderground v.1.15,2013-06-30 01:58:00,
2013-06-29 21:04:00,79.9,49.0,29.92,NNE,22,10.0,10.0,34,0.00,,,0.00,0,Wunderground v.1.15,2013-06-30 02:04:00,
2013-06-29 21:10:00,79.4,49.4,29.92,NNW,346,9.0,19.0,35,0.00,,,0.00,0,Wunderground v.1.15,2013-06-30 02:10:00,
2013-06-29 21:16:00,79.0,49.0,29.93,North,357,9.0,19.0,35,0.00,,,0.00,0,Wunderground v.1.15,2013-06-30 02:16:00,
2013-06-29 21:22:00,78.6,49.4,29.93,North,2,7.0,19.0,36,0.00,,,0.00,0,Wunderground v.1.15,2013-06-30 02:22:00,
2013-06-29 21:28:00,77.9,49.5,29.93,North,357,6.0,19.0,37,0.00,,,0.00,0,Wunderground v.1.15,2013-06-30 02:28:00,
2013-06-29 21:34:00,77.4,49.8,29.93,North,357,6.0,19.0,38,0.00,,,0.00,0,Wunderground v.1.15,2013-06-30 02:34:00,
2013-06-29 21:36:00,77.3,50.4,29.93,North,2,6.0,19.0,39,0.00,,,0.00,0,Wunderground v.1.15,2013-06-30 02:36:00,
2013-06-29 21:42:00,76.9,50.1,29.94,North,6,6.0,19.0,39,0.00,,,0.00,0,Wunderground v.1.15,2013-06-30 02:42:00,
2013-06-29 21:48:00,76.8,50.6,29.94,North,352,6.0,19.0,40,0.00,,,0.00,0,Wunderground v.1.15,2013-06-30 02:48:00,
2013-06-29 21:54:00,76.3,50.9,29.94,North,352,5.0,5.0,41,0.00,,,0.00,0,Wunderground v.1.15,2013-06-30 02:54:00,
2013-06-29 22:00:00,75.8,51.1,29.94,North,2,5.0,19.0,42,0.00,,,0.00,0,Wunderground v.1.15,2013-06-30 03:00:00,
2013-06-29 22:06:00,75.3,51.3,29.95,NNW,347,5.0,19.0,43,0.00,,,0.00,0,Wunderground v.1.15,2013-06-30 03:06:00,
2013-06-29 22:12:00,75.0,51.6,29.95,North,9,5.0,19.0,44,0.00,,,0.00,0,Wunderground v.1.15,2013-06-30 03:12:00,
2013-06-29 22:18:00,74.6,51.9,29.95,North,352,5.0,19.0,45,0.00,,,0.00,0,Wunderground v.1.15,2013-06-30 03:18:00,
2013-06-29 22:24:00,74.1,51.4,29.96,North,2,5.0,19.0,45,0.00,,,0.00,0,Wunderground v.1.15,2013-06-30 03:24:00,
2013-06-29 22:30:00,73.8,51.7,29.96,North,2,5.0,19.0,46,0.00,,,0.00,0,Wunderground v.1.15,2013-06-30 03:30:00,
2013-06-29 22:36:00,73.7,51.6,29.96,NNW,348,5.0,19.0,46,0.00,,,0.00,0,Wunderground v.1.15,2013-06-30 03:36:00,
2013-06-29 22:42:00,73.5,52.0,29.96,North,357,5.0,19.0,47,0.00,,,0.00,0,Wunderground v.1.15,2013-06-30 03:42:00,
2013-06-29 22:48:00,73.2,52.3,29.96,North,8,5.0,19.0,48,0.00,,,0.00,0,Wunderground v.1.15,2013-06-30 03:48:00,
2013-06-29 22:54:00,73.0,52.1,29.96,North,2,5.0,19.0,48,0.00,,,0.00,0,Wunderground v.1.15,2013-06-30 03:54:00,
2013-06-29 23:00:00,72.8,52.5,29.96,North,352,5.0,19.0,49,0.00,,,0.00,0,Wunderground v.1.15,2013-06-30 04:00:00,
2013-06-29 23:02:00,72.7,52.4,29.96,North,357,5.0,19.0,49,0.00,,,0.00,0,Wunderground v.1.15,2013-06-30 04:02:00,
2013-06-29 23:04:00,72.6,52.3,29.96,North,357,5.0,19.0,49,0.00,,,0.00,0,Wunderground v.1.15,2013-06-30 04:04:00,
2013-06-29 23:08:00,72.4,52.2,29.96,North,357,4.0,19.0,49,0.00,,,0.00,0,Wunderground v.1.15,2013-06-30 04:08:00,
2013-06-29 23:10:00,72.4,52.2,29.96,North,357,4.0,19.0,49,0.00,,,0.00,0,Wunderground v.1.15,2013-06-30 04:10:00,
2013-06-29 23:14:00,72.3,52.1,29.96,North,357,4.0,4.0,49,0.00,,,0.00,0,Wunderground v.1.15,2013-06-30 04:14:00,
2013-06-29 23:20:00,72.1,53.0,29.96,NNE,19,4.0,19.0,51,0.00,,,0.00,0,Wunderground v.1.15,2013-06-30 04:20:00,
2013-06-29 23:26:00,71.5,52.9,29.96,NNE,19,4.0,19.0,52,0.00,,,0.00,0,Wunderground v.1.15,2013-06-30 04:26:00,
2013-06-29 23:32:00,71.4,53.4,29.96,North,10,4.0,19.0,53,0.00,,,0.00,0,Wunderground v.1.15,2013-06-30 04:32:00,
2013-06-29 23:38:00,71.4,52.9,29.96,North,6,5.0,19.0,52,0.00,,,0.00,0,Wunderground v.1.15,2013-06-30 04:38:00,
2013-06-29 23:44:00,71.8,52.7,29.96,North,8,5.0,19.0,51,0.00,,,0.00,0,Wunderground v.1.15,2013-06-30 04:44:00,
2013-06-29 23:50:00,71.8,53.2,29.96,NNE,19,6.0,19.0,52,0.00,,,0.00,0,Wunderground v.1.15,2013-06-30 04:50:00,
2013-06-29 23:56:00,72.5,53.3,29.96,NNE,26,7.0,19.0,51,0.00,,,0.00,0,Wunderground v.1.15,2013-06-30 04:56:00,